| time (UTC) | temp F | wind direction | speed knots | gust knots | rain 1hr in | rain 24hr in | rain mn in | humidity % | barometer mb |
| 20260505005516 | 62 | 238 | 1.7 | 5.2 | 0.00 | 0.00 | 0.00 | 52 | 1009.7 |
| 20260505004539 | 62 | 141 | 0.9 | 3.5 | 0.00 | 0.00 | 0.00 | 52 | 1009.5 |
| 20260505003519 | 63 | 192 | 1.7 | 3.5 | 0.00 | 0.00 | 0.00 | 50 | 1009.2 |
| 20260505002520 | 63 | 235 | 2.6 | 6.1 | 0.00 | 0.00 | 0.00 | 50 | 1009.0 |
| 20260505001536 | 64 | 228 | 2.6 | 7.0 | 0.00 | 0.00 | 0.00 | 50 | 1008.8 |
| 20260505000617 | 64 | 223 | 2.6 | 6.1 | 0.00 | 0.00 | 0.00 | 49 | 1008.6 |
| 20260504235520 | 65 | 237 | 2.6 | 6.1 | 0.00 | 0.00 | 0.00 | 48 | 1008.3 |
| 20260504234517 | 65 | 244 | 2.6 | 7.0 | 0.00 | 0.00 | 0.00 | 47 | 1008.1 |
| 20260504233517 | 66 | 228 | 2.6 | 7.8 | 0.00 | 0.00 | 0.00 | 46 | 1007.9 |
| 20260504232517 | 67 | 218 | 1.7 | 5.2 | 0.00 | 0.00 | 0.00 | 45 | 1007.7 |
| 20260504231520 | 68 | 157 | 3.5 | 8.7 | 0.00 | 0.00 | 0.00 | 43 | 1007.5 |
| 20260504230537 | 69 | 260 | 2.6 | 9.6 | 0.00 | 0.00 | 0.00 | 40 | 1007.4 |
| 20260504225517 | 70 | 268 | 2.6 | 7.0 | 0.00 | 0.00 | 0.00 | 38 | 1007.1 |
| 20260504224539 | 71 | 228 | 0.9 | 4.3 | 0.00 | 0.00 | 0.00 | 37 | 1006.9 |
| 20260504223518 | 71 | 274 | 2.6 | 6.1 | 0.00 | 0.00 | 0.00 | 36 | 1006.8 |
| 20260504222518 | 71 | 261 | 1.7 | 7.0 | 0.00 | 0.00 | 0.00 | 36 | 1006.7 |
| 20260504221518 | 71 | 253 | 1.7 | 4.3 | 0.00 | 0.00 | 0.00 | 37 | 1006.7 |
| 20260504220518 | 70 | 261 | 2.6 | 6.1 | 0.00 | 0.00 | 0.00 | 37 | 1006.9 |
| 20260504215518 | 71 | 244 | 2.6 | 7.0 | 0.00 | 0.00 | 0.00 | 36 | 1006.9 |
| 20260504214518 | 72 | 277 | 3.5 | 7.0 | 0.00 | 0.00 | 0.00 | 36 | 1006.9 |
| 20260504213539 | 71 | 288 | 3.5 | 7.8 | 0.00 | 0.00 | 0.00 | 36 | 1006.8 |
| 20260504212518 | 71 | 268 | 3.5 | 6.1 | 0.00 | 0.00 | 0.00 | 36 | 1006.9 |
| 20260504211517 | 71 | 286 | 3.5 | 7.8 | 0.00 | 0.00 | 0.00 | 36 | 1006.8 |
| 20260504210519 | 72 | 261 | 3.5 | 7.0 | 0.00 | 0.00 | 0.00 | 36 | 1006.8 |
| 20260504205520 | 71 | 267 | 3.5 | 9.6 | 0.00 | 0.00 | 0.00 | 36 | 1006.8 |
| 20260504204519 | 70 | 191 | 4.3 | 7.8 | 0.00 | 0.00 | 0.00 | 36 | 1006.8 |
| 20260504203516 | 70 | 279 | 3.5 | 6.1 | 0.00 | 0.00 | 0.00 | 37 | 1006.9 |
| 20260504202516 | 72 | 278 | 3.5 | 7.8 | 0.00 | 0.00 | 0.00 | 36 | 1006.9 |
| 20260504201519 | 72 | 287 | 3.5 | 7.8 | 0.00 | 0.00 | 0.00 | 35 | 1006.8 |
| 20260504200520 | 72 | 252 | 2.6 | 6.1 | 0.00 | 0.00 | 0.00 | 36 | 1007.0 |
| 20260504195516 | 72 | 215 | 2.6 | 7.0 | 0.00 | 0.00 | 0.00 | 34 | 1007.0 |
| 20260504194517 | 71 | 267 | 4.3 | 7.8 | 0.00 | 0.00 | 0.00 | 36 | 1007.0 |
| 20260504193519 | 72 | 276 | 3.5 | 7.8 | 0.00 | 0.00 | 0.00 | 35 | 1007.0 |
| 20260504192517 | 71 | 265 | 3.5 | 8.7 | 0.00 | 0.00 | 0.00 | 35 | 1007.0 |
| 20260504191517 | 71 | 195 | 3.5 | 7.8 | 0.00 | 0.00 | 0.00 | 34 | 1007.1 |
| 20260504190517 | 71 | 273 | 3.5 | 10.4 | 0.00 | 0.00 | 0.00 | 35 | 1007.2 |
| 20260504185517 | 71 | 267 | 2.6 | 7.8 | 0.00 | 0.00 | 0.00 | 36 | 1007.2 |
| 20260504184518 | 70 | 250 | 4.3 | 8.7 | 0.00 | 0.00 | 0.00 | 35 | 1007.5 |
| 20260504183518 | 71 | 286 | 4.3 | 10.4 | 0.00 | 0.00 | 0.00 | 36 | 1007.5 |
| 20260504182518 | 70 | 236 | 3.5 | 8.7 | 0.00 | 0.00 | 0.00 | 36 | 1007.5 |
| 20260504181518 | 70 | 249 | 2.6 | 7.8 | 0.00 | 0.00 | 0.00 | 36 | 1007.4 |
| 20260504180538 | 70 | 248 | 2.6 | 7.0 | 0.00 | 0.00 | 0.00 | 37 | 1007.6 |
| 20260504175518 | 69 | 272 | 3.5 | 10.4 | 0.00 | 0.00 | 0.00 | 37 | 1007.6 |
| 20260504174518 | 69 | 235 | 3.5 | 7.8 | 0.00 | 0.00 | 0.00 | 37 | 1007.8 |
| 20260504173520 | 68 | 270 | 4.3 | 9.6 | 0.00 | 0.00 | 0.00 | 37 | 1008.0 |
| 20260504172516 | 68 | 253 | 5.2 | 11.3 | 0.00 | 0.00 | 0.00 | 37 | 1008.0 |
| 20260504171519 | 68 | 260 | 3.5 | 8.7 | 0.00 | 0.00 | 0.00 | 39 | 1008.0 |
| 20260504170519 | 68 | 275 | 4.3 | 7.8 | 0.00 | 0.00 | 0.00 | 38 | 1008.1 |
| 20260504150520 | 65 | 287 | 4.3 | 8.7 | 0.00 | 0.00 | 0.00 | 41 | 1009.3 |
| 20260504140518 | 62 | 273 | 3.5 | 7.8 | 0.00 | 0.00 | 0.00 | 45 | 1009.6 |
| 20260504130519 | 56 | 271 | 2.6 | 7.0 | 0.00 | 0.00 | 0.00 | 50 | 1010.6 |
| 20260504110517 | 47 | 288 | 0.9 | 3.5 | 0.00 | 0.00 | 0.00 | 61 | 1010.6 |
| 20260504100518 | 43 | 40 | 0.9 | 1.7 | 0.00 | 0.00 | 0.00 | 75 | 1010.5 |
| 20260504081539 | 42 | 0.0 | 0.0 | 0.00 | 0.00 | 0.00 | 81 | 1010.5 | |
| 20260504080519 | 42 | 53 | 0.0 | 0.9 | 0.00 | 0.00 | 0.00 | 81 | 1010.5 |
| 20260504050522 | 36 | 311 | 0.0 | 1.7 | 0.00 | 0.00 | 0.00 | 86 | 1010.3 |
| 20260504045521 | 34 | 310 | 0.0 | 1.7 | 0.00 | 0.00 | 0.00 | 92 | 1010.5 |
| 20260504044522 | 33 | 0.0 | 0.0 | 0.00 | 0.00 | 0.00 | 92 | 1010.5 | |
| 20260504043522 | 33 | 267 | 0.0 | 0.9 | 0.00 | 0.00 | 0.00 | 92 | 1010.5 |
| 20260504042525 | 33 | 7 | 0.0 | 0.9 | 0.00 | 0.00 | 0.00 | 92 | 1010.5 |
| 20260504041522 | 33 | 0.0 | 0.0 | 0.00 | 0.00 | 0.00 | 93 | 1010.5 | |
| 20260504040522 | 34 | 0.0 | 0.0 | 0.00 | 0.00 | 0.00 | 92 | 1010.4 | |
| 20260504035522 | 34 | 0.0 | 0.0 | 0.00 | 0.00 | 0.00 | 91 | 1010.4 | |
| 20260504034520 | 34 | 0.0 | 0.0 | 0.00 | 0.00 | 0.00 | 90 | 1010.2 | |
| 20260504033525 | 35 | 0.0 | 0.0 | 0.00 | 0.00 | 0.00 | 89 | 1010.2 | |
| 20260504032522 | 35 | 33 | 0.0 | 0.9 | 0.00 | 0.00 | 0.00 | 89 | 1010.2 |
| 20260504031517 | 35 | 50 | 0.0 | 0.9 | 0.00 | 0.00 | 0.00 | 88 | 1010.2 |
| 20260504030517 | 35 | 108 | 0.0 | 0.9 | 0.00 | 0.00 | 0.00 | 89 | 1010.2 |
| 20260504025518 | 35 | 56 | 0.0 | 0.9 | 0.00 | 0.00 | 0.00 | 88 | 1010.2 |
| 20260504024517 | 36 | 13 | 0.0 | 0.9 | 0.00 | 0.00 | 0.00 | 86 | 1010.1 |
| 20260504023518 | 36 | 128 | 0.0 | 0.9 | 0.00 | 0.00 | 0.00 | 85 | 1010.1 |
| 20260504022518 | 36 | 39 | 0.0 | 0.9 | 0.00 | 0.00 | 0.00 | 83 | 1010.1 |
| 20260504021518 | 37 | 212 | 0.0 | 0.0 | 0.00 | 0.00 | 0.00 | 82 | 1010.0 |
| 20260504020518 | 37 | 22 | 0.0 | 0.9 | 0.00 | 0.00 | 0.00 | 82 | 1010.0 |
| 20260504015520 | 38 | 294 | 0.0 | 0.9 | 0.00 | 0.00 | 0.00 | 80 | 1010.0 |
| 20260504014518 | 38 | 15 | 0.0 | 0.9 | 0.00 | 0.00 | 0.00 | 77 | 1010.0 |
| 20260504013518 | 39 | 31 | 0.0 | 0.9 | 0.00 | 0.00 | 0.00 | 77 | 1009.9 |
| 20260504012518 | 39 | 10 | 0.0 | 0.9 | 0.00 | 0.00 | 0.00 | 74 | 1009.9 |
| 20260504011519 | 40 | 210 | 0.0 | 0.9 | 0.00 | 0.00 | 0.00 | 72 | 1009.8 |
| 20260504010539 | 41 | 23 | 0.0 | 0.9 | 0.00 | 0.00 | 0.00 | 71 | 1009.7 |
| 20260504005519 | 42 | 45 | 0.0 | 0.9 | 0.00 | 0.00 | 0.00 | 69 | 1009.6 |